Manitowoc, WI

11:46 AM CDT on October 20, 2019 (GMT -0500)
Manitowoc County

Weather History for KMTW - September, 2019

Change the Weather History Date:

Friday, September 20, 2019

  Actual Average Record
Temperature  
Mean Temperature 65 °F -  
Max Temperature 73 °F 68 °F 82 °F (1967)
Min Temperature 57 °F 50 °F 35 °F (1956)
Growing Degree Days 15 (Base 50)    
Moisture  
Dew Point 61 °F    
Average Humidity 96    
Maximum Humidity 100    
Minimum Humidity 78    
Precipitation  
Precipitation 0.00 in - - ()
Sea Level Pressure  
Sea Level Pressure 30.12 in    
Wind  
Wind Speed 1 mph (ESE)    
Max Wind Speed 8 mph    
Max Gust Speed -    
Visibility 3 miles    
Events Fog    
Averages and records for this station are not official NWS values.
T = Trace of Precipitation, MM = Missing Value Source: NWS Daily Summary

Daily Weather History Graph

Daily Weather History Graph

Search for Another Location

Airport or City:

Astronomy

Sep. 20, 2019 Rise Set
Actual Time 6:35 AM CDT 6:52 PM CDT
Civil Twilight 6:06 AM CDT 7:21 PM CDT
Nautical Twilight 5:32 AM CDT 7:55 PM CDT
Astronomical Twilight 4:57 AM CDT 8:29 PM CDT
Moon 10:29 PM CDT 12:52 PM CDT
Length of Visible Light 13h 14m
Length of Day
12h 16m
Waning Gibbous, 65% of the Moon is Illuminated
Sep 20
Waning Gibbous
Sep 21
Last Quarter
Sep 28
New
Oct 5
First Quarter
Oct 13
Full

Hourly Weather History & Observations

Time (CDT) Temp. Dew Point Humidity Pressure Visibility Wind Dir Wind Speed Gust Speed Precip Events Conditions
12:56 AM 61.0 °F 60.1 °F 97% 30.09 in 4.0 mi Calm Calm - N/A   Clear
1:03 AM 60.8 °F 60.8 °F 100% 30.10 in 1.8 mi Calm Calm - N/A   Clear
1:07 AM 60.8 °F 60.8 °F 100% 30.10 in 0.8 mi Calm Calm - N/A   Clear
1:14 AM 60.8 °F 60.8 °F 100% 30.10 in 0.2 mi Calm Calm - N/A Fog Fog
1:30 AM 60.8 °F 59.0 °F 94% 30.10 in 0.8 mi Calm Calm - N/A   Clear
1:34 AM 60.8 °F 60.8 °F 100% 30.10 in 1.5 mi Calm Calm - N/A   Clear
1:37 AM 60.8 °F 60.8 °F 100% 30.10 in 0.8 mi Calm Calm - N/A   Clear
1:47 AM 59.0 °F 59.0 °F 100% 30.10 in 0.2 mi Calm Calm - N/A Fog Fog
1:54 AM 59.0 °F 59.0 °F 100% 30.10 in 0.8 mi Calm Calm - N/A   Clear
1:56 AM 59.0 °F 59.0 °F 100% 30.10 in 1.8 mi Calm Calm - N/A   Clear
2:00 AM 60.8 °F 59.0 °F 94% 30.10 in 0.8 mi Calm Calm - N/A   Mist
2:08 AM 59.0 °F 59.0 °F 100% 30.10 in 0.8 mi Calm Calm - N/A   Mist
2:10 AM 59.0 °F 59.0 °F 100% 30.10 in 1.2 mi Calm Calm - N/A   Scattered Clouds
2:12 AM 59.0 °F 59.0 °F 100% 30.10 in 5.0 mi Calm Calm - N/A   Scattered Clouds
2:37 AM 59.0 °F 59.0 °F 100% 30.10 in 4.0 mi Calm Calm - N/A   Mostly Cloudy
2:56 AM 59.0 °F 57.9 °F 96% 30.11 in 5.0 mi Calm Calm - N/A   Scattered Clouds
3:31 AM 59.0 °F 57.2 °F 94% 30.10 in 1.8 mi Calm Calm - N/A   Clear
3:37 AM 59.0 °F 57.2 °F 94% 30.11 in 0.8 mi Calm Calm - N/A   Clear
3:46 AM 59.0 °F 57.2 °F 94% 30.11 in 0.2 mi NNW 3.5 mph - N/A Fog Fog
3:56 AM 59.0 °F 57.9 °F 96% 30.10 in 0.2 mi Calm Calm - N/A Fog Fog
4:12 AM 57.2 °F 57.2 °F 100% 30.11 in 0.8 mi Calm Calm - N/A   Mostly Cloudy
4:15 AM 57.2 °F 57.2 °F 100% 30.11 in 2.5 mi Calm Calm - N/A   Mostly Cloudy
4:22 AM 57.2 °F 57.2 °F 100% 30.11 in 7.0 mi Calm Calm - N/A   Overcast
4:48 AM 57.2 °F 57.2 °F 100% 30.11 in 2.5 mi Calm Calm - N/A   Scattered Clouds
4:56 AM 57.9 °F 57.0 °F 97% 30.11 in 3.0 mi Calm Calm - N/A   Scattered Clouds
5:04 AM 57.2 °F 57.2 °F 100% 30.11 in 5.0 mi Calm Calm - N/A   Mostly Cloudy
5:28 AM 57.2 °F 57.2 °F 100% 30.12 in 1.0 mi NNW 3.5 mph - N/A   Mist
5:35 AM 57.2 °F 57.2 °F 100% 30.12 in 1.0 mi NNW 3.5 mph - N/A   Clear
5:45 AM 57.2 °F 57.2 °F 100% 30.12 in 1.5 mi Calm Calm - N/A   Clear
5:51 AM 57.2 °F 57.2 °F 100% 30.12 in 2.5 mi Calm Calm - N/A   Partly Cloudy
5:56 AM 57.0 °F 57.0 °F 100% 30.12 in 3.0 mi Calm Calm - N/A   Partly Cloudy
6:32 AM 57.2 °F 55.4 °F 94% 30.13 in 1.8 mi NW 3.5 mph - N/A   Partly Cloudy
6:56 AM 57.0 °F 57.0 °F 100% 30.14 in 1.8 mi Calm Calm - N/A   Clear
7:06 AM 57.2 °F 55.4 °F 94% 30.13 in 0.8 mi Calm Calm - N/A   Clear
7:16 AM 57.2 °F 57.2 °F 100% 30.13 in 1.5 mi Calm Calm - N/A   Clear
7:28 AM 57.2 °F 57.2 °F 100% 30.13 in 2.0 mi Calm Calm - N/A   Clear
7:40 AM 60.8 °F 59.0 °F 94% 30.13 in 3.0 mi Calm Calm - N/A   Partly Cloudy
7:51 AM 60.8 °F 60.8 °F 100% 30.13 in 2.0 mi Calm Calm - N/A   Mostly Cloudy
7:52 AM 60.8 °F 60.8 °F 100% 30.13 in 1.5 mi Calm Calm - N/A   Mostly Cloudy
7:54 AM 60.8 °F 60.8 °F 100% 30.14 in 0.8 mi Calm Calm - N/A   Mostly Cloudy
7:56 AM 61.0 °F 60.1 °F 97% 30.14 in 0.5 mi Calm Calm - N/A Fog Fog
8:03 AM 60.8 °F 60.8 °F 100% 30.14 in 0.2 mi Calm Calm - N/A Fog Fog
8:56 AM 64.9 °F 64.9 °F 100% 30.15 in 0.2 mi North 5.8 mph - N/A Fog Fog
9:31 AM 66.2 °F 66.2 °F 100% 30.15 in 1.0 mi Calm Calm - N/A   Overcast
9:39 AM 66.2 °F 66.2 °F 100% 30.15 in 1.8 mi Calm Calm - N/A   Overcast
9:56 AM 66.0 °F 66.0 °F 100% 30.15 in 2.0 mi East 3.5 mph - N/A   Overcast
10:33 AM 69.8 °F 66.2 °F 88% 30.15 in 8.0 mi ESE 4.6 mph - N/A   Overcast
10:47 AM 71.6 °F 66.2 °F 83% 30.15 in 10.0 mi ESE 5.8 mph - N/A   Mostly Cloudy
10:56 AM 71.1 °F 66.9 °F 87% 30.15 in 10.0 mi ESE 5.8 mph - N/A   Scattered Clouds
11:56 AM 72.0 °F 66.0 °F 81% 30.13 in 8.0 mi East 5.8 mph - N/A   Clear
12:56 PM 73.0 °F 66.0 °F 79% 30.12 in 10.0 mi ESE 8.1 mph - N/A   Clear
1:56 PM 72.0 °F 66.0 °F 81% 30.11 in 9.0 mi SE 6.9 mph - N/A   Clear
2:56 PM 73.0 °F 66.0 °F 79% 30.11 in 10.0 mi SE 5.8 mph - N/A   Clear
3:56 PM 72.0 °F 64.9 °F 78% 30.10 in 10.0 mi North - - N/A   Clear
4:56 PM 69.1 °F 64.0 °F 84% 30.12 in 10.0 mi North - - N/A   Clear
5:56 PM 66.9 °F 64.0 °F 90% 30.12 in 10.0 mi ESE 6.9 mph - N/A   Clear
6:56 PM 66.0 °F 64.0 °F 93% 30.12 in 8.0 mi SE 4.6 mph - N/A   Clear
7:51 PM 64.4 °F 62.6 °F 94% 30.12 in 4.0 mi ESE 3.5 mph - N/A   Partly Cloudy
7:56 PM 64.0 °F 63.0 °F 96% 30.12 in 3.0 mi East 4.6 mph - N/A   Partly Cloudy
8:17 PM 64.4 °F 62.6 °F 94% 30.12 in 3.0 mi ESE 4.6 mph - N/A   Mostly Cloudy
8:35 PM 64.4 °F 64.4 °F 100% 30.12 in 2.5 mi ESE 3.5 mph - N/A   Overcast
8:56 PM 64.0 °F 64.0 °F 100% 30.12 in 2.0 mi ESE 4.6 mph - N/A   Overcast
9:04 PM 64.4 °F 64.4 °F 100% 30.12 in 1.8 mi ESE 4.6 mph - N/A   Overcast
9:26 PM 64.4 °F 64.4 °F 100% 30.12 in 0.8 mi ESE 3.5 mph - N/A   Overcast
9:37 PM 64.4 °F 64.4 °F 100% 30.12 in 0.5 mi East 3.5 mph - N/A Fog Fog
9:56 PM 64.0 °F 64.0 °F 100% 30.12 in 0.2 mi East 4.6 mph - N/A Fog Fog
10:56 PM 64.0 °F 64.0 °F 100% 30.11 in 0.2 mi ESE 4.6 mph - N/A Fog Fog
11:56 PM 64.9 °F 64.9 °F 100% 30.10 in 0.2 mi ESE 3.5 mph - N/A Fog Fog